Year,Month,Day,Hour,Minute,Value (Times are PST for temperature in C)
2016,04,17,00,00,8.90
2016,04,17,00,01,8.90
2016,04,17,00,02,8.90
2016,04,17,00,03,8.90
2016,04,17,00,04,8.90
2016,04,17,00,05,8.90
2016,04,17,00,06,8.90
2016,04,17,00,07,8.90
2016,04,17,00,08,8.90
2016,04,17,00,09,8.90
2016,04,17,00,10,8.90
2016,04,17,00,11,8.90
2016,04,17,00,12,8.90
2016,04,17,00,13,8.80
2016,04,17,00,14,8.80
2016,04,17,00,15,8.90
2016,04,17,00,16,8.90
2016,04,17,00,17,8.90
2016,04,17,00,18,8.90
2016,04,17,00,19,8.90
2016,04,17,00,20,9.00
2016,04,17,00,21,9.00
2016,04,17,00,22,9.00
2016,04,17,00,23,9.00
2016,04,17,00,24,9.00
2016,04,17,00,25,9.00
2016,04,17,00,26,9.00
2016,04,17,00,27,9.00
2016,04,17,00,28,8.90
2016,04,17,00,29,8.90
2016,04,17,00,30,8.90
2016,04,17,00,31,8.80
2016,04,17,00,32,8.80
2016,04,17,00,33,8.80
2016,04,17,00,34,8.80
2016,04,17,00,35,8.80
2016,04,17,00,36,8.70
2016,04,17,00,37,8.70
2016,04,17,00,38,8.70
2016,04,17,00,39,8.70
2016,04,17,00,40,8.70
2016,04,17,00,41,8.70
2016,04,17,00,42,8.70
2016,04,17,00,43,8.70
2016,04,17,00,44,8.70
2016,04,17,00,45,8.70
2016,04,17,00,46,8.70
2016,04,17,00,47,8.70
2016,04,17,00,48,8.70
2016,04,17,00,49,8.70
2016,04,17,00,50,8.70
2016,04,17,00,51,8.70
2016,04,17,00,52,8.70
2016,04,17,00,53,8.70
2016,04,17,00,54,8.70
2016,04,17,00,55,8.70
2016,04,17,00,56,8.70
2016,04,17,00,57,8.70
2016,04,17,00,58,8.70
2016,04,17,00,59,8.80
2016,04,17,01,00,8.80
2016,04,17,01,01,8.80
2016,04,17,01,02,8.80
2016,04,17,01,03,8.80
2016,04,17,01,04,8.70
2016,04,17,01,05,8.70
2016,04,17,01,06,8.70
2016,04,17,01,07,8.70
2016,04,17,01,08,8.60
2016,04,17,01,09,8.60
2016,04,17,01,10,8.60
2016,04,17,01,11,8.60
2016,04,17,01,12,8.50
2016,04,17,01,13,8.50
2016,04,17,01,14,8.50
2016,04,17,01,15,8.50
2016,04,17,01,16,8.60
2016,04,17,01,17,8.60
2016,04,17,01,18,8.60
2016,04,17,01,19,8.60
2016,04,17,01,20,8.60
2016,04,17,01,21,8.60
2016,04,17,01,22,8.60
2016,04,17,01,23,8.60
2016,04,17,01,24,8.60
2016,04,17,01,25,8.60
2016,04,17,01,26,8.60
2016,04,17,01,27,8.60
2016,04,17,01,28,8.60
2016,04,17,01,29,8.60
2016,04,17,01,30,8.60
2016,04,17,01,31,8.60
2016,04,17,01,32,8.60
2016,04,17,01,33,8.60
2016,04,17,01,34,8.60
2016,04,17,01,35,8.60
2016,04,17,01,36,8.60
2016,04,17,01,37,8.60
2016,04,17,01,38,8.60
2016,04,17,01,39,8.60
2016,04,17,01,40,8.60
2016,04,17,01,41,8.60
2016,04,17,01,42,8.50
2016,04,17,01,43,8.50
2016,04,17,01,44,8.50
2016,04,17,01,45,8.50
2016,04,17,01,46,8.50
2016,04,17,01,47,8.50
2016,04,17,01,48,8.50
2016,04,17,01,49,8.50
2016,04,17,01,50,8.60
2016,04,17,01,51,8.60
2016,04,17,01,52,8.60
2016,04,17,01,53,8.50
2016,04,17,01,54,8.50
2016,04,17,01,55,8.50
2016,04,17,01,56,8.50
2016,04,17,01,57,8.50
2016,04,17,01,58,8.50
2016,04,17,01,59,8.50
2016,04,17,02,00,8.50
2016,04,17,02,01,8.50
2016,04,17,02,02,8.50
2016,04,17,02,03,8.40
2016,04,17,02,04,8.40
2016,04,17,02,05,8.40
2016,04,17,02,06,8.30
2016,04,17,02,07,8.30
2016,04,17,02,08,8.20
2016,04,17,02,09,8.20
2016,04,17,02,10,8.20
2016,04,17,02,11,8.10
2016,04,17,02,12,8.10
2016,04,17,02,13,8.10
2016,04,17,02,14,8.10
2016,04,17,02,15,8.10
2016,04,17,02,16,8.10
2016,04,17,02,17,8.10
2016,04,17,02,18,8.00
2016,04,17,02,19,8.00
2016,04,17,02,20,7.90
2016,04,17,02,21,7.90
2016,04,17,02,22,7.90
2016,04,17,02,23,7.90
2016,04,17,02,24,7.90
2016,04,17,02,25,7.90
2016,04,17,02,26,7.90
2016,04,17,02,27,7.90
2016,04,17,02,28,7.90
2016,04,17,02,29,7.90
2016,04,17,02,30,7.90
2016,04,17,02,31,7.90
2016,04,17,02,32,8.00
2016,04,17,02,33,8.00
2016,04,17,02,34,8.00
2016,04,17,02,35,8.00
2016,04,17,02,36,8.00
2016,04,17,02,37,8.00
2016,04,17,02,38,8.00
2016,04,17,02,39,8.10
2016,04,17,02,40,8.10
2016,04,17,02,41,8.10
2016,04,17,02,42,8.10
2016,04,17,02,43,8.10
2016,04,17,02,44,8.10
2016,04,17,02,45,8.10
2016,04,17,02,46,8.10
2016,04,17,02,47,8.10
2016,04,17,02,48,8.20
2016,04,17,02,49,8.20
2016,04,17,02,50,8.20
2016,04,17,02,51,8.20
2016,04,17,02,52,8.20
2016,04,17,02,53,8.20
2016,04,17,02,54,8.20
2016,04,17,02,55,8.20
2016,04,17,02,56,8.20
2016,04,17,02,57,8.20
2016,04,17,02,58,8.20
2016,04,17,02,59,8.20
2016,04,17,03,00,8.20
2016,04,17,03,01,8.20
2016,04,17,03,02,8.20
2016,04,17,03,03,8.20
2016,04,17,03,04,8.20
2016,04,17,03,05,8.20
2016,04,17,03,06,8.20
2016,04,17,03,07,8.20
2016,04,17,03,08,8.20
2016,04,17,03,09,8.20
2016,04,17,03,10,8.20
2016,04,17,03,11,8.20
2016,04,17,03,12,8.20
2016,04,17,03,13,8.20
2016,04,17,03,14,8.20
2016,04,17,03,15,8.20
2016,04,17,03,16,8.20
2016,04,17,03,17,8.20
2016,04,17,03,18,8.10
2016,04,17,03,19,8.10
2016,04,17,03,20,8.10
2016,04,17,03,21,8.10
2016,04,17,03,22,8.10
2016,04,17,03,23,8.10
2016,04,17,03,24,8.10
2016,04,17,03,25,8.10
2016,04,17,03,26,8.10
2016,04,17,03,27,8.10
2016,04,17,03,28,8.10
2016,04,17,03,29,8.10
2016,04,17,03,30,8.10
2016,04,17,03,31,8.20
2016,04,17,03,32,8.10
2016,04,17,03,33,8.10
2016,04,17,03,34,8.10
2016,04,17,03,35,8.10
2016,04,17,03,36,8.00
2016,04,17,03,37,8.00
2016,04,17,03,38,8.00
2016,04,17,03,39,7.90
2016,04,17,03,40,7.90
2016,04,17,03,41,7.90
2016,04,17,03,42,7.90
2016,04,17,03,43,7.90
2016,04,17,03,44,7.90
2016,04,17,03,45,7.90
2016,04,17,03,46,7.90
2016,04,17,03,47,7.90
2016,04,17,03,48,7.90
2016,04,17,03,49,7.90
2016,04,17,03,50,7.90
2016,04,17,03,51,7.90
2016,04,17,03,52,7.90
2016,04,17,03,53,7.90
2016,04,17,03,54,7.90
2016,04,17,03,55,7.90
2016,04,17,03,56,7.80
2016,04,17,03,57,7.80
2016,04,17,03,58,7.80
2016,04,17,03,59,7.80
2016,04,17,04,00,7.80
2016,04,17,04,01,7.80
2016,04,17,04,02,7.80
2016,04,17,04,03,7.80
2016,04,17,04,04,7.80
2016,04,17,04,05,7.80
2016,04,17,04,06,7.80
2016,04,17,04,07,7.80
2016,04,17,04,08,7.80
2016,04,17,04,09,7.70
2016,04,17,04,10,7.70
2016,04,17,04,11,7.70
2016,04,17,04,12,7.70
2016,04,17,04,13,7.70
2016,04,17,04,14,7.70
2016,04,17,04,15,7.70
2016,04,17,04,16,7.60
2016,04,17,04,17,7.60
2016,04,17,04,18,7.60
2016,04,17,04,19,7.60
2016,04,17,04,20,7.60
2016,04,17,04,21,7.60
2016,04,17,04,22,7.60
2016,04,17,04,23,7.50
2016,04,17,04,24,7.50
2016,04,17,04,25,7.50
2016,04,17,04,26,7.50
2016,04,17,04,27,7.50
2016,04,17,04,28,7.50
2016,04,17,04,29,7.50
2016,04,17,04,30,7.40
2016,04,17,04,31,7.40
2016,04,17,04,32,7.40
2016,04,17,04,33,7.40
2016,04,17,04,34,7.40
2016,04,17,04,35,7.40
2016,04,17,04,36,7.40
2016,04,17,04,37,7.40
2016,04,17,04,38,7.40
2016,04,17,04,39,7.40
2016,04,17,04,40,7.40
2016,04,17,04,41,7.40
2016,04,17,04,42,7.40
2016,04,17,04,43,7.40
2016,04,17,04,44,7.40
2016,04,17,04,45,7.40
2016,04,17,04,46,7.40
2016,04,17,04,47,7.40
2016,04,17,04,48,7.50
2016,04,17,04,49,7.50
2016,04,17,04,50,7.50
2016,04,17,04,51,7.50
2016,04,17,04,52,7.50
2016,04,17,04,53,7.50
2016,04,17,04,54,7.50
2016,04,17,04,55,7.50
2016,04,17,04,56,7.50
2016,04,17,04,57,7.50
2016,04,17,04,58,7.50
2016,04,17,04,59,7.50
2016,04,17,05,00,7.50
2016,04,17,05,01,7.50
2016,04,17,05,02,7.50
2016,04,17,05,03,7.40
2016,04,17,05,04,7.40
2016,04,17,05,05,7.40
2016,04,17,05,06,7.40
2016,04,17,05,07,7.40
2016,04,17,05,08,7.40
2016,04,17,05,09,7.40
2016,04,17,05,10,7.40
2016,04,17,05,11,7.40
2016,04,17,05,12,7.50
2016,04,17,05,13,7.50
2016,04,17,05,14,7.60
2016,04,17,05,15,7.60
2016,04,17,05,16,7.60
2016,04,17,05,17,7.60
2016,04,17,05,18,7.70
2016,04,17,05,19,7.70
2016,04,17,05,20,7.70
2016,04,17,05,21,7.70
2016,04,17,05,22,7.70
2016,04,17,05,23,7.70
2016,04,17,05,24,7.80
2016,04,17,05,25,7.80
2016,04,17,05,26,7.80
2016,04,17,05,27,7.80
2016,04,17,05,28,7.90
2016,04,17,05,29,7.90
2016,04,17,05,30,7.90
2016,04,17,05,31,8.00
2016,04,17,05,32,8.00
2016,04,17,05,33,8.00
2016,04,17,05,34,8.10
2016,04,17,05,35,8.10
2016,04,17,05,36,8.10
2016,04,17,05,37,8.20
2016,04,17,05,38,8.20
2016,04,17,05,39,8.20
2016,04,17,05,40,8.20
2016,04,17,05,41,8.30
2016,04,17,05,42,8.30
2016,04,17,05,43,8.40
2016,04,17,05,44,8.40
2016,04,17,05,45,8.40
2016,04,17,05,46,8.50
2016,04,17,05,47,8.50
2016,04,17,05,48,8.50
2016,04,17,05,49,8.60
2016,04,17,05,50,8.60
2016,04,17,05,51,8.60
2016,04,17,05,52,8.60
2016,04,17,05,53,8.60
2016,04,17,05,54,8.60
2016,04,17,05,55,8.60
2016,04,17,05,56,8.60
2016,04,17,05,57,8.60
2016,04,17,05,58,8.60
2016,04,17,05,59,8.70
2016,04,17,06,00,8.70
2016,04,17,06,01,8.70
2016,04,17,06,02,8.70
2016,04,17,06,03,8.70
2016,04,17,06,04,8.70
2016,04,17,06,05,8.70
2016,04,17,06,06,8.80
2016,04,17,06,07,8.80
2016,04,17,06,08,8.80
2016,04,17,06,09,8.80
2016,04,17,06,10,8.80
2016,04,17,06,11,8.80
2016,04,17,06,12,8.80
2016,04,17,06,13,8.80
2016,04,17,06,14,8.80
2016,04,17,06,15,8.90
2016,04,17,06,16,8.90
2016,04,17,06,17,8.90
2016,04,17,06,18,8.90
2016,04,17,06,19,8.90
2016,04,17,06,20,8.90
2016,04,17,06,21,8.90
2016,04,17,06,22,8.90
2016,04,17,06,23,8.90
2016,04,17,06,24,9.00
2016,04,17,06,25,9.00
2016,04,17,06,26,9.00
2016,04,17,06,27,9.00
2016,04,17,06,28,9.00
2016,04,17,06,29,9.00
2016,04,17,06,30,9.00
2016,04,17,06,31,9.00
2016,04,17,06,32,9.10
2016,04,17,06,33,9.10
2016,04,17,06,34,9.10
2016,04,17,06,35,9.20
2016,04,17,06,36,9.20
2016,04,17,06,37,9.20
2016,04,17,06,38,9.20
2016,04,17,06,39,9.20
2016,04,17,06,40,9.20
2016,04,17,06,41,9.20
2016,04,17,06,42,9.20
2016,04,17,06,43,9.20
2016,04,17,06,44,9.20
2016,04,17,06,45,9.10
2016,04,17,06,46,9.10
2016,04,17,06,47,9.10
2016,04,17,06,48,9.10
2016,04,17,06,49,9.20
2016,04,17,06,50,9.20
2016,04,17,06,51,9.20
2016,04,17,06,52,9.20
2016,04,17,06,53,9.20
2016,04,17,06,54,9.20
2016,04,17,06,55,7.90
2016,04,17,06,55,6.70
2016,04,17,06,56,9.20
2016,04,17,06,57,9.30
2016,04,17,06,58,9.30
2016,04,17,06,59,9.30
2016,04,17,07,00,9.30
2016,04,17,07,01,9.30
2016,04,17,07,02,9.30
2016,04,17,07,03,9.30
2016,04,17,07,04,9.30
2016,04,17,07,05,9.30
2016,04,17,07,06,9.30
2016,04,17,07,07,9.30
2016,04,17,07,08,9.30
2016,04,17,07,09,9.30
2016,04,17,07,10,9.40
2016,04,17,07,11,9.40
2016,04,17,07,12,9.40
2016,04,17,07,13,9.40
2016,04,17,07,14,9.40
2016,04,17,07,15,9.50
2016,04,17,07,16,9.50
2016,04,17,07,17,9.50
2016,04,17,07,18,9.60
2016,04,17,07,19,9.60
2016,04,17,07,20,9.60
2016,04,17,07,21,9.70
2016,04,17,07,22,9.70
2016,04,17,07,23,9.70
2016,04,17,07,24,9.70
2016,04,17,07,25,9.80
2016,04,17,07,26,9.90
2016,04,17,07,27,10.00
2016,04,17,07,28,10.10
2016,04,17,07,29,10.20
2016,04,17,07,30,10.30
2016,04,17,07,31,10.40
2016,04,17,07,32,10.50
2016,04,17,07,33,10.60
2016,04,17,07,34,10.70
2016,04,17,07,35,10.80
2016,04,17,07,36,10.90
2016,04,17,07,37,10.90
2016,04,17,07,38,11.00
2016,04,17,07,39,11.10
2016,04,17,07,40,11.20
2016,04,17,07,41,11.20
2016,04,17,07,42,11.30
2016,04,17,07,43,11.30
2016,04,17,07,44,11.40
2016,04,17,07,45,11.50
2016,04,17,07,46,11.50
2016,04,17,07,47,11.60
2016,04,17,07,48,11.60
2016,04,17,07,49,11.70
2016,04,17,07,50,11.70
2016,04,17,07,51,11.70
2016,04,17,07,52,11.70
2016,04,17,07,53,11.80
2016,04,17,07,54,11.80
2016,04,17,07,55,11.80
2016,04,17,07,56,11.80
2016,04,17,07,57,11.80
2016,04,17,07,58,11.80
2016,04,17,07,59,11.80
2016,04,17,08,00,11.80
2016,04,17,08,01,11.80
2016,04,17,08,02,11.90
2016,04,17,08,03,11.90
2016,04,17,08,04,11.90
2016,04,17,08,05,11.90
2016,04,17,08,06,11.90
2016,04,17,08,07,11.90
2016,04,17,08,08,11.90
2016,04,17,08,09,11.90
2016,04,17,08,10,11.90
2016,04,17,08,11,11.90
2016,04,17,08,12,11.90
2016,04,17,08,13,11.90
2016,04,17,08,14,11.90
2016,04,17,08,15,12.00
2016,04,17,08,16,12.00
2016,04,17,08,17,12.00
2016,04,17,08,18,12.10
2016,04,17,08,19,12.10
2016,04,17,08,20,12.10
2016,04,17,08,21,12.20
2016,04,17,08,22,12.20
2016,04,17,08,23,12.20
2016,04,17,08,24,12.30
2016,04,17,08,25,12.30
2016,04,17,08,26,12.30
2016,04,17,08,27,12.30
2016,04,17,08,28,12.40
2016,04,17,08,29,12.40
2016,04,17,08,30,12.40
2016,04,17,08,31,12.40
2016,04,17,08,32,12.50
2016,04,17,08,33,12.50
2016,04,17,08,34,12.60
2016,04,17,08,35,12.60
2016,04,17,08,36,12.70
2016,04,17,08,37,12.70
2016,04,17,08,38,12.70
2016,04,17,08,39,12.80
2016,04,17,08,40,12.80
2016,04,17,08,41,12.80
2016,04,17,08,42,12.90
2016,04,17,08,43,12.90
2016,04,17,08,44,12.90
2016,04,17,08,45,12.90
2016,04,17,08,46,13.00
2016,04,17,08,47,13.00
2016,04,17,08,48,13.10
2016,04,17,08,49,13.10
2016,04,17,08,50,13.10
2016,04,17,08,51,13.20
2016,04,17,08,52,13.20
2016,04,17,08,53,13.20
2016,04,17,08,54,13.30
2016,04,17,08,55,13.30
2016,04,17,08,56,13.40
2016,04,17,08,57,13.40
2016,04,17,08,58,13.50
2016,04,17,08,59,13.60
2016,04,17,09,00,13.70
2016,04,17,09,01,13.70
2016,04,17,09,02,13.70
2016,04,17,09,03,13.80
2016,04,17,09,04,13.80
2016,04,17,09,05,13.80
2016,04,17,09,06,13.90
2016,04,17,09,07,13.90
2016,04,17,09,08,14.00
2016,04,17,09,09,14.00
2016,04,17,09,10,14.00
2016,04,17,09,11,14.00
2016,04,17,09,12,14.10
2016,04,17,09,13,14.10
2016,04,17,09,14,14.10
2016,04,17,09,15,14.10
2016,04,17,09,16,14.10
2016,04,17,09,17,14.20
2016,04,17,09,18,14.20
2016,04,17,09,19,14.30
2016,04,17,09,20,14.30
2016,04,17,09,21,14.40
2016,04,17,09,22,14.40
2016,04,17,09,23,14.40
2016,04,17,09,24,14.50
2016,04,17,09,25,14.50
2016,04,17,09,26,14.60
2016,04,17,09,27,14.60
2016,04,17,09,28,14.70
2016,04,17,09,29,14.60
2016,04,17,09,30,14.60
2016,04,17,09,31,14.60
2016,04,17,09,32,14.70
2016,04,17,09,33,14.70
2016,04,17,09,34,14.70
2016,04,17,09,35,14.70
2016,04,17,09,36,14.70
2016,04,17,09,37,14.70
2016,04,17,09,38,14.70
2016,04,17,09,39,14.70
2016,04,17,09,40,14.70
2016,04,17,09,41,14.70
2016,04,17,09,42,14.70
2016,04,17,09,43,14.70
2016,04,17,09,44,14.70
2016,04,17,09,45,14.70
2016,04,17,09,46,14.70
2016,04,17,09,47,14.70
2016,04,17,09,48,14.70
2016,04,17,09,49,14.70
2016,04,17,09,50,14.70
2016,04,17,09,51,14.70
2016,04,17,09,52,14.70
2016,04,17,09,53,14.60
2016,04,17,09,54,14.60
2016,04,17,09,55,14.60
2016,04,17,09,56,14.60
2016,04,17,09,57,14.60
2016,04,17,09,58,14.60
2016,04,17,09,59,14.60
2016,04,17,10,00,14.70
2016,04,17,10,01,14.70
2016,04,17,10,02,14.80
2016,04,17,10,03,14.90
2016,04,17,10,04,15.00
2016,04,17,10,05,15.00
2016,04,17,10,06,15.00
2016,04,17,10,07,15.00
2016,04,17,10,08,14.90
2016,04,17,10,09,14.90
2016,04,17,10,10,14.90
2016,04,17,10,11,14.90
2016,04,17,10,12,14.90
2016,04,17,10,13,15.00
2016,04,17,10,14,15.00
2016,04,17,10,15,15.10
2016,04,17,10,16,15.20
2016,04,17,10,17,15.30
2016,04,17,10,18,15.40
2016,04,17,10,19,15.40
2016,04,17,10,20,15.50
2016,04,17,10,21,15.50
2016,04,17,10,22,15.50
2016,04,17,10,23,15.50
2016,04,17,10,24,15.50
2016,04,17,10,25,15.50
2016,04,17,10,26,15.50
2016,04,17,10,27,15.50
2016,04,17,10,28,15.50
2016,04,17,10,29,15.50
2016,04,17,10,30,15.50
2016,04,17,10,31,15.40
2016,04,17,10,32,15.40
2016,04,17,10,33,15.40
2016,04,17,10,34,15.40
2016,04,17,10,35,15.40
2016,04,17,10,36,15.30
2016,04,17,10,37,15.30
2016,04,17,10,38,15.30
2016,04,17,10,39,15.30
2016,04,17,10,40,15.20
2016,04,17,10,41,15.20
2016,04,17,10,42,15.20
2016,04,17,10,43,15.20
2016,04,17,10,44,15.30
2016,04,17,10,45,15.30
2016,04,17,10,46,15.40
2016,04,17,10,47,15.50
2016,04,17,10,48,15.50
2016,04,17,10,49,15.60
2016,04,17,10,50,15.70
2016,04,17,10,51,15.80
2016,04,17,10,52,15.80
2016,04,17,10,53,15.80
2016,04,17,10,54,15.70
2016,04,17,10,55,15.70
2016,04,17,10,56,15.70
2016,04,17,10,57,15.70
2016,04,17,10,58,15.70
2016,04,17,10,59,15.70
2016,04,17,11,00,15.80
2016,04,17,11,01,15.80
2016,04,17,11,02,15.90
2016,04,17,11,03,15.90
2016,04,17,11,04,15.90
2016,04,17,11,05,15.90
2016,04,17,11,06,15.90
2016,04,17,11,07,15.80
2016,04,17,11,08,15.80
2016,04,17,11,09,15.80
2016,04,17,11,10,15.70
2016,04,17,11,11,15.70
2016,04,17,11,12,15.70
2016,04,17,11,13,15.70
2016,04,17,11,14,15.60
2016,04,17,11,15,15.70
2016,04,17,11,16,15.70
2016,04,17,11,17,15.70
2016,04,17,11,18,15.70
2016,04,17,11,19,15.80
2016,04,17,11,20,15.80
2016,04,17,11,21,15.90
2016,04,17,11,22,15.90
2016,04,17,11,23,16.00
2016,04,17,11,24,16.00
2016,04,17,11,25,16.10
2016,04,17,11,26,16.00
2016,04,17,11,27,16.00
2016,04,17,11,28,16.00
2016,04,17,11,29,16.10
2016,04,17,11,30,16.10
2016,04,17,11,31,16.10
2016,04,17,11,32,16.20
2016,04,17,11,33,16.20
2016,04,17,11,34,16.20
2016,04,17,11,35,16.30
2016,04,17,11,36,16.40
2016,04,17,11,37,16.50
2016,04,17,11,38,16.60
2016,04,17,11,39,16.60
2016,04,17,11,40,16.60
2016,04,17,11,41,16.60
2016,04,17,11,42,16.60
2016,04,17,11,43,16.50
2016,04,17,11,44,16.50
2016,04,17,11,45,16.40
2016,04,17,11,46,16.50
2016,04,17,11,47,16.50
2016,04,17,11,48,16.40
2016,04,17,11,49,16.40
2016,04,17,11,50,16.30
2016,04,17,11,51,16.30
2016,04,17,11,52,16.40
2016,04,17,11,53,16.40
2016,04,17,11,54,16.50
2016,04,17,11,55,16.50
2016,04,17,11,56,16.50
2016,04,17,11,57,16.40
2016,04,17,11,58,16.40
2016,04,17,11,59,16.40
2016,04,17,12,00,16.40
2016,04,17,12,01,16.30
2016,04,17,12,02,16.30
2016,04,17,12,03,16.20
2016,04,17,12,04,16.20
2016,04,17,12,05,16.20
2016,04,17,12,06,16.20
2016,04,17,12,07,16.20
2016,04,17,12,08,16.20
2016,04,17,12,09,16.30
2016,04,17,12,10,16.30
2016,04,17,12,11,16.40
2016,04,17,12,12,16.40
2016,04,17,12,13,16.50
2016,04,17,12,14,16.60
2016,04,17,12,15,16.60
2016,04,17,12,16,16.60
2016,04,17,12,17,16.50
2016,04,17,12,18,16.50
2016,04,17,12,19,16.50
2016,04,17,12,20,16.60
2016,04,17,12,21,16.70
2016,04,17,12,22,16.70
2016,04,17,12,23,16.80
2016,04,17,12,24,16.80
2016,04,17,12,25,16.70
2016,04,17,12,26,16.70
2016,04,17,12,27,16.70
2016,04,17,12,28,16.70
2016,04,17,12,29,16.70
2016,04,17,12,30,16.60
2016,04,17,12,31,16.60
2016,04,17,12,32,16.60
2016,04,17,12,33,16.70
2016,04,17,12,34,16.70
2016,04,17,12,35,16.80
2016,04,17,12,36,16.90
2016,04,17,12,37,16.90
2016,04,17,12,38,16.90
2016,04,17,12,39,16.90
2016,04,17,12,40,16.90
2016,04,17,12,41,16.80
2016,04,17,12,42,16.80
2016,04,17,12,43,16.80
2016,04,17,12,44,16.80
2016,04,17,12,45,16.80
2016,04,17,12,46,16.90
2016,04,17,12,47,16.90
2016,04,17,12,48,17.00
2016,04,17,12,49,17.10
2016,04,17,12,50,17.10
2016,04,17,12,51,17.20
2016,04,17,12,52,17.30
2016,04,17,12,53,17.30
2016,04,17,12,54,17.40
2016,04,17,12,55,17.40
2016,04,17,12,56,17.40
2016,04,17,12,57,17.40
2016,04,17,12,58,17.50
2016,04,17,12,59,17.50
2016,04,17,13,00,17.40
2016,04,17,13,01,17.30
2016,04,17,13,02,17.20
2016,04,17,13,03,17.10
2016,04,17,13,04,17.10
2016,04,17,13,05,17.00
2016,04,17,13,06,17.00
2016,04,17,13,07,17.00
2016,04,17,13,08,17.00
2016,04,17,13,09,17.10
2016,04,17,13,10,17.20
2016,04,17,13,11,17.30
2016,04,17,13,12,17.30
2016,04,17,13,13,17.30
2016,04,17,13,14,17.30
2016,04,17,13,15,17.30
2016,04,17,13,16,17.40
2016,04,17,13,17,17.40
2016,04,17,13,18,17.40
2016,04,17,13,19,17.40
2016,04,17,13,20,17.40
2016,04,17,13,21,17.40
2016,04,17,13,22,17.40
2016,04,17,13,23,17.50
2016,04,17,13,24,17.60
2016,04,17,13,25,17.70
2016,04,17,13,26,17.80
2016,04,17,13,27,17.90
2016,04,17,13,28,17.90
2016,04,17,13,29,18.00
2016,04,17,13,30,18.00
2016,04,17,13,31,18.00
2016,04,17,13,32,17.90
2016,04,17,13,33,17.90
2016,04,17,13,34,17.90
2016,04,17,13,35,18.00
2016,04,17,13,36,18.00
2016,04,17,13,37,18.10
2016,04,17,13,38,18.10
2016,04,17,13,39,18.10
2016,04,17,13,40,18.10
2016,04,17,13,41,18.10
2016,04,17,13,42,18.10
2016,04,17,13,43,18.00
2016,04,17,13,44,18.00
2016,04,17,13,45,18.00
2016,04,17,13,46,18.10
2016,04,17,13,47,18.10
2016,04,17,13,48,18.10
2016,04,17,13,49,18.10
2016,04,17,13,50,18.10
2016,04,17,13,51,18.10
2016,04,17,13,52,18.20
2016,04,17,13,53,18.20
2016,04,17,13,54,18.20
2016,04,17,13,55,18.30
2016,04,17,13,56,18.30
2016,04,17,13,57,18.40
2016,04,17,13,58,18.40
2016,04,17,13,59,18.40
2016,04,17,14,00,18.40
2016,04,17,14,01,18.50
2016,04,17,14,02,18.40
2016,04,17,14,03,18.40
2016,04,17,14,04,18.30
2016,04,17,14,05,18.20
2016,04,17,14,06,18.20
2016,04,17,14,07,18.10
2016,04,17,14,08,18.10
2016,04,17,14,09,18.10
2016,04,17,14,10,18.10
2016,04,17,14,11,18.10
2016,04,17,14,12,18.20
2016,04,17,14,13,18.20
2016,04,17,14,14,18.20
2016,04,17,14,15,18.20
2016,04,17,14,16,18.20
2016,04,17,14,17,18.20
2016,04,17,14,18,18.20
2016,04,17,14,19,18.20
2016,04,17,14,20,18.20
2016,04,17,14,21,18.20
2016,04,17,14,22,18.20
2016,04,17,14,23,18.20
2016,04,17,14,24,18.20
2016,04,17,14,25,18.20
2016,04,17,14,26,18.20
2016,04,17,14,27,18.20
2016,04,17,14,28,18.30
2016,04,17,14,29,18.30
2016,04,17,14,30,18.20
2016,04,17,14,31,18.30
2016,04,17,14,32,18.30
2016,04,17,14,33,18.30
2016,04,17,14,34,18.40
2016,04,17,14,35,18.40
2016,04,17,14,36,18.50
2016,04,17,14,37,18.70
2016,04,17,14,38,18.80
2016,04,17,14,39,18.90
2016,04,17,14,40,19.00
2016,04,17,14,41,19.10
2016,04,17,14,42,19.20
2016,04,17,14,43,19.40
2016,04,17,14,44,19.50
2016,04,17,14,45,19.60
2016,04,17,14,46,19.70
2016,04,17,14,47,19.70
2016,04,17,14,48,19.70
2016,04,17,14,49,19.70
2016,04,17,14,50,19.60
2016,04,17,14,51,19.60
2016,04,17,14,52,19.60
2016,04,17,14,53,19.60
2016,04,17,14,54,19.50
2016,04,17,14,55,19.40
2016,04,17,14,56,19.30
2016,04,17,14,57,19.20
2016,04,17,14,58,19.20
2016,04,17,14,59,19.20
2016,04,17,15,00,19.20
2016,04,17,15,01,19.20
2016,04,17,15,02,19.20
2016,04,17,15,03,19.20
2016,04,17,15,04,19.20
2016,04,17,15,05,19.20
2016,04,17,15,06,19.10
2016,04,17,15,07,19.10
2016,04,17,15,08,19.10
2016,04,17,15,09,19.10
2016,04,17,15,10,19.10
2016,04,17,15,11,19.00
2016,04,17,15,12,19.00
2016,04,17,15,13,19.00
2016,04,17,15,14,19.00
2016,04,17,15,15,19.10
2016,04,17,15,16,19.10
2016,04,17,15,17,19.20
2016,04,17,15,18,19.30
2016,04,17,15,19,19.30
2016,04,17,15,20,19.30
2016,04,17,15,21,19.30
2016,04,17,15,22,19.30
2016,04,17,15,23,19.30
2016,04,17,15,24,19.30
2016,04,17,15,25,19.30
2016,04,17,15,26,19.30
2016,04,17,15,27,19.30
2016,04,17,15,28,19.40
2016,04,17,15,29,19.50
2016,04,17,15,30,19.50
2016,04,17,15,31,19.60
2016,04,17,15,32,19.80
2016,04,17,15,33,20.00
2016,04,17,15,34,20.10
2016,04,17,15,35,20.20
2016,04,17,15,36,20.20
2016,04,17,15,37,20.20
2016,04,17,15,38,20.20
2016,04,17,15,39,20.10
2016,04,17,15,40,20.00
2016,04,17,15,41,20.00
2016,04,17,15,42,19.90
2016,04,17,15,43,19.90
2016,04,17,15,44,19.80
2016,04,17,15,45,19.80
2016,04,17,15,46,19.80
2016,04,17,15,47,19.80
2016,04,17,15,48,19.80
2016,04,17,15,49,19.80
2016,04,17,15,50,19.90
2016,04,17,15,51,19.90
2016,04,17,15,52,20.00
2016,04,17,15,53,20.10
2016,04,17,15,54,20.10
2016,04,17,15,55,20.10
2016,04,17,15,56,20.10
2016,04,17,15,57,20.10
2016,04,17,15,58,20.10
2016,04,17,15,59,20.00
2016,04,17,16,00,20.00
2016,04,17,16,01,19.90
2016,04,17,16,02,19.90
2016,04,17,16,03,19.90
2016,04,17,16,04,19.90
2016,04,17,16,05,19.90
2016,04,17,16,06,19.90
2016,04,17,16,07,19.90
2016,04,17,16,08,19.90
2016,04,17,16,09,19.90
2016,04,17,16,10,19.90
2016,04,17,16,11,19.90
2016,04,17,16,12,19.90
2016,04,17,16,13,19.80
2016,04,17,16,14,19.80
2016,04,17,16,15,19.70
2016,04,17,16,16,19.70
2016,04,17,16,17,19.70
2016,04,17,16,18,19.70
2016,04,17,16,19,19.70
2016,04,17,16,20,19.60
2016,04,17,16,21,19.60
2016,04,17,16,22,19.50
2016,04,17,16,23,19.40
2016,04,17,16,24,19.30
2016,04,17,16,25,19.20
2016,04,17,16,26,19.10
2016,04,17,16,27,19.00
2016,04,17,16,28,18.90
2016,04,17,16,29,18.90
2016,04,17,16,30,18.80
2016,04,17,16,31,18.80
2016,04,17,16,32,18.80
2016,04,17,16,33,18.90
2016,04,17,16,34,18.90
2016,04,17,16,35,18.90
2016,04,17,16,36,18.90
2016,04,17,16,37,18.80
2016,04,17,16,38,18.80
2016,04,17,16,39,18.80
2016,04,17,16,40,18.80
2016,04,17,16,41,18.70
2016,04,17,16,42,18.70
2016,04,17,16,43,18.70
2016,04,17,16,44,18.60
2016,04,17,16,45,18.60
2016,04,17,16,46,18.60
2016,04,17,16,47,18.60
2016,04,17,16,48,18.70
2016,04,17,16,49,18.70
2016,04,17,16,50,18.70
2016,04,17,16,51,18.70
2016,04,17,16,52,18.80
2016,04,17,16,53,18.80
2016,04,17,16,54,18.80
2016,04,17,16,55,18.90
2016,04,17,16,56,18.90
2016,04,17,16,57,18.90
2016,04,17,16,58,18.90
2016,04,17,16,59,18.90
2016,04,17,17,00,18.80
2016,04,17,17,01,18.80
2016,04,17,17,02,18.80
2016,04,17,17,03,18.70
2016,04,17,17,04,18.70
2016,04,17,17,05,18.70
2016,04,17,17,06,18.70
2016,04,17,17,07,18.70
2016,04,17,17,08,18.70
2016,04,17,17,09,18.70
2016,04,17,17,10,18.70
2016,04,17,17,11,18.80
2016,04,17,17,12,18.80
2016,04,17,17,13,18.80
2016,04,17,17,14,18.80
2016,04,17,17,15,18.80
2016,04,17,17,16,18.90
2016,04,17,17,17,18.90
2016,04,17,17,18,18.90
2016,04,17,17,19,18.90
2016,04,17,17,20,18.90
2016,04,17,17,21,18.90
2016,04,17,17,22,18.90
2016,04,17,17,23,18.90
2016,04,17,17,24,18.90
2016,04,17,17,25,18.90
2016,04,17,17,26,18.90
2016,04,17,17,27,18.90
2016,04,17,17,28,18.90
2016,04,17,17,29,18.90
2016,04,17,17,30,18.90
2016,04,17,17,31,18.90
2016,04,17,17,32,18.90
2016,04,17,17,33,18.90
2016,04,17,17,34,18.90
2016,04,17,17,35,18.90
2016,04,17,17,36,18.90
2016,04,17,17,37,19.00